Regional Weather Roundup
Issued by NWS

Home | Current Version | Previous Version | Text Only | Print | Product List | Glossary Off
Versions: 1 2 3 4 5 6 7 8 9 10 11 12 13 14 15 16 17 18 19 20 21 22 23 24 25 26 27 28 29 30 31 32 33 34 35 36 37 38 39 40 41 42 43 44 45 46 47 48 49 50

000
ASUS43 KLOT 121808
RWRIL

ILLINOIS REGIONAL WEATHER ROUNDUP
NATIONAL WEATHER SERVICE CHICAGO/ROMEOVILLE IL
1200 PM CST FRI FEB 12 2016

NOTE: "FAIR" INDICATES FEW OR NO CLOUDS BELOW 12,000 FEET WITH NO
SIGNIFICANT WEATHER AND/OR OBSTRUCTIONS TO VISIBILITY.

* THESE STATIONS ARE NOT UNDER NWS QUALITY CONTROL. THEY ALSO MAY NOT
  REPORT WEATHER SUCH AS PRECIPITATION OR FOG.

ILZ001-002-007-009-015-016-024-121900-
NORTHWEST ILLINOIS

CITY           SKY/WX    TMP DP  RH WIND       PRES   REMARKS
MOLINE         MOSUNNY   25  11  55 W20G31    30.29S WCI  11
6HR MIN TEMP:  20; 6HR MAX TEMP:  26; 6HR PCP: TRACE;

STERLING*      PTSUNNY   25  10  54 NW20G28   30.21F WCI  11
SAVANNA*       MOSUNNY   24   8  51 NW12G21   30.26S WCI  12
$$

ILZ003-004-008-010-011-017-018-121900-
NORTH CENTRAL ILLINOIS

CITY           SKY/WX    TMP DP  RH WIND       PRES   REMARKS
ROCKFORD       PTSUNNY   21   7  54 NW22G28   30.22S WCI   5
6HR MIN TEMP:  17; 6HR MAX TEMP:  22; 6HR PCP: TRACE;

FREEPORT*      CLOUDY    19   7  60 NW13G24   30.25R WCI   6
ROCHELLE*      PTSUNNY   23  10  59 NW20G26   30.21S WCI   8
DE KALB*       CLOUDY    21  10  61 NW17      30.18S WCI   7
$$

ILZ005-006-012>014-019>023-121900-
NORTHEAST ILLINOIS

CITY           SKY/WX    TMP DP  RH WIND       PRES   REMARKS
CHICAGO-OHARE  PTSUNNY   21   8  57 NW18G25   30.15S WCI   6
6HR MIN TEMP:  19; 6HR MAX TEMP:  22; 6HR PCP: TRACE;

CHICAGO-MIDWAY PTSUNNY   24   8  50 W20G26    30.16S WCI  10
6HR MIN TEMP:  21; 6HR MAX TEMP:  24; 6HR PCP: TRACE;

AURORA         PTSUNNY   22  10  60 NW21G29   30.18S WCI   6
6HR MIN TEMP:  18; 6HR MAX TEMP:  24; 6HR PCP: TRACE;

LANSING*       CLOUDY    23  11  61 NW15G22   30.15F WCI  10
JOLIET*        CLOUDY    24  13  63 NW13G20   30.19S WCI  12
WAUKEGAN       PTSUNNY   19   5  54 NW13G25   30.14S WCI   6
6HR MIN TEMP:  18; 6HR MAX TEMP:  20;

DUPAGE AIRPORT PTSUNNY   21   7  54 NW23G31   30.16S WCI   5
6HR MIN TEMP:  17; 6HR MAX TEMP:  21; 6HR PCP: TRACE;

KANKAKEE*      MIX PCPN  23  14  68 NW14G21   30.18S WCI  11
WHEELING       CLOUDY    20   8  60 NW18G26   30.17S WCI   5
6HR MIN TEMP:  19; 6HR MAX TEMP:  22; 6HR PCP: TRACE;

MORRIS*        CLOUDY    22  12  63 NW17G24   30.17S WCI   8
ROMEOVILLE*    MIX PCPN  21  11  65 NW16G23   30.17S WCI   7
NORTHERLY ISL    N/A     22   7  52 W21         N/A  WCI   7
$$

LMZ740>746-121900-
SOUTHERN LAKE MICHIGAN

STATION/POSITION SKY/WX   TEMP    WIND        PRES    VSBY  WAVE
                          AIR SEA DIR/SP/G                  HT/PER
                          (F)     (DEG/KT/KT) (MB)    (MI)  (FT/S)
HARRISON CRIB              21     310/ 17/ 19   N/A
BURNHAM HARBOR             23     260/ 14/ 20   N/A
CALUMET HARBOR             22     260/  7/ 15 1020.3R
BURNS HARBOR               21     290/ 16/ 21 1020.7S
MICHIGAN CITY              21     270/ 22/ 26   N/A
$$

ILZ025>027-034>036-040-047-049-050-058-095>099-121900-
WEST-CENTRAL ILLINOIS

CITY           SKY/WX    TMP DP  RH WIND       PRES   REMARKS
QUINCY         CLOUDY    24  15  68 NW18      30.34R WCI  10
GALESBURG*     PTSUNNY   24  13  63 NW21G26   30.28S WCI  10
MACOMB*        CLOUDY    24  17  73 N20       30.33R WCI  10
JACKSONVILLE*  MIX PCPN  28  21  75 NW20G29   30.30S WCI  15
PITTSFIELD*    CLOUDY    26  19  75 NW14G23   30.33S WCI  14
$$

ILZ028>032-037-038-041>044-048-051>054-059>061-121900-
CENTRAL ILLINOIS

CITY           SKY/WX    TMP DP  RH WIND       PRES   REMARKS
PONTIAC        CLOUDY    25  18  76 NW20G26   30.22R WCI  10
BLOOMINGTON    LGT SNOW  24  20  85 NW15G24   30.22R FOG     WCI  11
DECATUR        CLOUDY    25  19  78 NW15      30.24S WCI  13
PEORIA         CLOUDY    25  13  60 NW17G26   30.27R WCI  12
6HR MIN TEMP:  22; 6HR MAX TEMP:  26; 6HR PCP: TRACE;

LACON*         CLOUDY    24  12  61 NW15G23   30.25R WCI  11
LINCOLN*       LGT SNOW  27  22  83 NW10G20   30.25S WCI  17
SPRINGFIELD    CLOUDY    26  20  77 NW17G25   30.28S WCI  13
6HR MIN TEMP:  20; 6HR MAX TEMP:  26;

TAYLORVILLE    CLOUDY    27  21  80 NW15      30.27S WCI  15
$$

ILZ033-039-045-046-055>057-062-063-121900-
EAST-CENTRAL ILLINOIS

CITY           SKY/WX    TMP DP  RH WIND       PRES   REMARKS
CHAMPAIGN      CLOUDY    25  20  81 W20       30.20F WCI  11
RANTOUL*       LGT SNOW  27  22  80 W14G22    30.19S WCI  16
MATTOON        CLOUDY    25  19  78 NW18      30.22S WCI  11
PARIS*         CLOUDY    26  20  79 W17       30.21F WCI  13
$$

ILZ079-100>102-121900-
SOUTHWEST ILLINOIS

CITY           SKY/WX    TMP DP  RH WIND       PRES   REMARKS
ALTON          CLOUDY    30  23  74 NW14G22   30.29S WCI  20
BELLEVILLE     PTSUNNY   33  25  72 NW14G21   30.28S WCI  23
CAHOKIA*       CLOUDY    34  22  61 NW16      30.31R WCI  24
SPARTA*        PTSUNNY   33  26  75 NW10G16   30.29F WCI  25
$$

ILZ064>066-069>071-074>076-080>082-084>086-088>090-092>094-121900-
SOUTH-CENTRAL ILLINOIS

CITY           SKY/WX    TMP DP  RH WIND       PRES   REMARKS
CARBONDALE     CLOUDY    33  25  72 NW12G20   30.28F WCI  24
6HR MIN TEMP:  26; 6HR MAX TEMP:  33;

CAIRO*         PTSUNNY   37  28  70 NW15      30.28S WCI  28
EFFINGHAM*     CLOUDY    28  24  83 W14G20    30.26S WCI  17
MARION         CLOUDY    32  27  80 NW9       30.28S WCI  24
MT. VERNON     PTSUNNY   30  23  74 W7        30.27S WCI  23
CENTRALIA*     CLOUDY    31  26  81 NW12      30.27R WCI  22
SALEM*         CLOUDY    31  24  74 NW14G20   30.26S WCI  21
METROPOLIS*    CLOUDY    34  31  88 W6        30.28S WCI  29
$$

ILZ067-068-072-073-078-083-087-091-121900-
SOUTHEAST ILLINOIS

CITY           SKY/WX    TMP DP  RH WIND       PRES   REMARKS
LAWRENCEVILLE  CLOUDY    28  22  78 NW14      30.24S WCI  17
FLORA*         CLOUDY    32  24  74 W14G24    30.26R WCI  22
FAIRFIELD*     CLOUDY    30  24  76 NW8       30.25S WCI  23
HARRISBURG*    CLOUDY    32  27  81 W10       30.27S WCI  24
ROBINSON*      CLOUDY    27  21  77 NW12G17   30.24S WCI  17
CARMI*         CLOUDY    29  24  81 W9        30.25S WCI  21
$$

ABBREVIATIONS USED IN REMARKS
   TC - TEMPERATURE IN CELSIUS
  WCI - WIND CHILL INDEX
   HX - HEAT INDEX
  VSB - VISIBILITY
$$




USA.gov is the U.S. government's official web portal to all federal, state and local government web resources and services.